Wind_Speed
18 24 26 24 26 30 32 23 20 23 21 25 25 22 16 18 20 21 20 24 24 26 27 24 23 23 21 16 19 21 22 25 22 20 22 22 20 18 16 15 15 16 17 17
29 28 23 18 25 26 30 33 22 21 26 29 23 14 19 21 22 21 22 24 26 27 23 25 19 18 23 22 22 21 21 23 21 21 21 20 18 16 14 14 14 16 17 17
18 17 16 18 35 30 27 20 16 19 21 18 20 20 22 24 24 24 27 24 21 21 22 21 17 16 21 25 22 23 23 20 20 20 20 18 16 13 12 12 14 16 16 15
14 11 6 19 20 14 7 13 19 23 27 27 28 26 28 28 27 27 26 25 22 19 19 17 16 17 22 24 23 21 18 19 20 19 18 17 14 12 11 11 12 14 13 13
7 12 21 38 35 17 17 34 32 28 29 30 29 29 24 23 23 22 20 21 21 20 17 18 20 19 25 24 23 19 19 21 19 18 16 13 11 10 10 10 11 11 11 12
19 12 6 48 39 25 16 28 25 22 20 21 22 22 18 19 20 24 26 25 24 16 17 19 20 23 27 26 22 19 22 21 19 15 12 10 8 8 9 8 9 9 12 15
23 19 24 39 34 31 24 42 28 24 22 20 19 17 22 25 28 28 24 21 19 18 16 17 22 26 27 24 21 23 21 18 16 11 10 9 10 9 8 8 9 12 13 14
14 13 15 16 5 15 14 14 14 19 26 28 26 28 29 29 28 26 25 19 17 19 21 21 23 25 25 21 22 21 18 16 13 11 11 10 6 6 7 8 10 12 13 15
18 24 22 18 25 31 36 36 36 36 33 30 27 27 28 29 27 23 20 16 16 18 20 23 25 25 22 21 20 18 17 15 13 12 11 11 10 9 8 9 10 13 15 16
21 28 30 30 31 30 34 32 30 29 31 27 24 25 27 26 22 17 17 16 19 21 22 24 23 21 19 19 17 16 14 13 12 12 11 10 10 9 9 9 11 13 15 17
27 27 24 24 29 17 16 14 16 18 20 22 21 20 20 17 15 16 17 19 20 22 22 21 19 17 17 17 16 14 14 13 13 11 10 9 9 8 8 9 11 14 16 17
31 23 25 24 27 9 14 16 16 17 19 18 18 20 18 18 18 18 19 20 20 20 19 16 14 14 14 14 14 14 14 14 12 11 11 8 8 9 8 10 12 15 16 17
27 21 22 18 15 21 22 23 20 21 20 21 20 20 19 18 18 19 18 19 18 17 13 11 12 12 13 13 14 14 15 14 12 11 10 9 8 9 10 10 13 16 17 17
33 24 25 22 19 24 25 23 19 19 20 22 19 19 19 17 17 17 17 16 15 12 10 10 12 12 13 14 17 18 16 14 13 12 11 9 9 9 10 11 14 17 18 17
30 27 30 27 31 25 21 17 18 19 20 20 18 17 17 16 16 16 15 13 12 10 8 9 10 11 13 17 19 18 17 16 15 12 10 10 10 10 11 16 17 16 16 16
16 17 19 21 19 16 15 17 18 20 18 17 16 17 18 16 15 13 12 11 9 7 6 7 10 11 14 18 19 18 17 16 14 12 12 12 12 13 18 18 17 16 15 16
18 20 17 12 13 15 17 18 20 20 17 15 14 14 13 13 12 10 9 8 7 7 8 10 12 14 16 19 22 22 22 21 18 15 13 15 16 20 21 18 16 16 16 17
19 15 13 15 17 20 24 22 20 17 15 13 12 11 11 10 8 8 9 8 8 8 9 10 11 13 16 18 18 17 20 19 18 16 16 17 21 22 19 15 14 16 16 16
24 24 22 21 22 22 22 19 16 14 12 11 11 10 9 9 9 9 9 8 8 8 9 10 10 11 14 17 19 21 22 21 19 19 21 21 22 20 16 14 14 16 17 17
23 24 24 24 24 21 15 14 12 11 10 10 9 9 9 9 9 9 8 8 8 9 9 10 11 11 12 16 18 19 20 21 19 18 18 20 19 16 13 13 15 16 17 17
12 17 19 16 16 13 12 10 9 8 9 8 8 9 9 9 8 8 7 7 9 9 9 10 11 11 12 13 14 16 16 14 14 16 16 17 16 13 12 14 16 17 17 17
14 14 13 13 12 10 9 8 7 7 7 7 8 8 8 8 8 8 7 7 9 9 10 10 11 12 13 13 13 14 13 14 14 14 14 15 13 13 15 16 17 17 17 18
11 10 11 11 9 8 7 5 5 5 6 7 7 8 8 9 8 8 7 10 10 11 11 11 13 14 14 13 14 14 14 13 14 14 14 13 13 15 16 17 18 18 18 18
9 10 10 9 8 7 6 6 5 6 6 6 7 7 7 8 8 8 10 11 12 12 12 13 13 14 13 13 14 13 13 14 14 15 14 14 15 16 16 17 18 19 19 18
9 9 9 9 8 8 7 7 6 6 6 6 6 6 7 7 8 9 11 12 11 11 13 13 13 13 12 13 13 13 14 15 16 15 15 15 15 16 18 18 19 20 21 20
11 11 11 10 10 8 8 8 7 6 6 6 6 7 8 7 8 10 11 11 11 12 13 13 12 12 13 13 13 14 14 15 14 15 16 16 17 18 19 20 20 20 21 22
14 13 11 10 9 8 8 8 8 8 8 8 8 8 8 8 9 10 11 11 12 13 12 12 11 11 12 13 13 13 14 14 15 16 16 17 18 19 20 21 22 22 22 22
Wind_Direction
261 265 272 276 273 266 266 270 260 270 278 271 292 308 289 282 281 284 285 281 281 290 297 291 293 299 294 295 280 275 274 282 290 289 290 293 296 295 295 296 300 301 302 300
279 281 285 273 258 257 263 259 268 277 279 275 286 276 290 297 298 292 287 290 292 294 283 284 289 284 272 288 285 279 275 284 281 282 287 288 288 289 294 296 300 304 304 304
261 278 276 279 271 272 274 280 291 287 288 283 278 274 282 293 300 301 299 299 288 288 285 278 292 277 269 282 287 278 279 275 275 280 280 281 285 288 292 292 298 302 302 303
266 281 260 267 258 273 289 292 292 275 275 277 282 288 291 296 299 299 299 301 293 283 281 278 282 271 268 289 284 280 272 274 275 275 277 279 279 278 289 296 302 301 301 305
242 250 273 274 273 282 308 298 293 272 271 276 284 286 294 292 290 290 292 307 287 280 270 265 264 268 275 285 281 274 266 268 269 268 268 267 269 277 285 293 297 301 310 322
244 246 244 272 284 288 283 283 283 280 284 281 281 280 275 274 285 291 297 299 293 268 254 262 266 269 284 285 278 264 264 263 262 262 255 256 271 276 280 287 294 307 319 322
256 252 263 269 277 278 265 271 280 285 282 271 268 278 291 283 285 292 299 297 281 270 273 271 266 272 278 276 265 263 261 259 257 246 241 253 262 273 279 282 291 307 317 320
263 254 260 278 290 234 274 271 261 289 294 292 288 291 287 284 289 289 292 277 271 268 275 270 269 272 274 267 262 259 258 255 242 221 238 242 253 284 286 295 308 312 321 326
250 255 258 269 277 279 288 287 286 289 292 282 281 279 282 282 282 283 272 258 262 265 268 270 271 271 268 260 257 254 253 244 226 227 230 228 249 282 294 304 317 324 325 326
262 271 278 279 276 279 276 281 276 281 286 279 282 284 289 285 275 258 252 258 263 268 271 270 270 267 258 254 249 250 241 221 215 218 226 230 251 269 285 303 313 316 322 324
279 279 285 274 278 244 268 280 290 267 282 280 288 294 291 271 256 255 259 264 268 272 272 271 266 255 247 247 245 235 220 211 209 218 225 248 258 268 288 307 314 322 324 325
284 291 276 271 278 306 301 289 278 280 281 286 290 289 283 275 269 265 271 271 270 270 270 263 250 243 240 238 229 218 211 201 212 216 225 235 270 284 294 305 314 317 315 318
287 278 261 261 263 290 296 295 284 282 281 281 284 279 276 271 267 269 268 268 268 264 256 242 233 234 230 221 214 206 201 205 211 217 228 234 247 268 290 306 314 314 315 315
285 274 261 256 261 279 290 289 283 280 279 280 282 271 268 269 268 268 266 261 258 254 239 227 231 228 221 213 206 200 203 212 217 224 234 251 263 274 298 307 309 311 311 315
284 254 256 260 262 273 281 276 281 290 284 279 275 263 262 261 263 264 261 256 252 248 241 231 228 225 221 215 205 203 209 215 220 228 244 258 265 275 289 296 302 304 307 316
266 238 241 236 257 265 269 275 285 293 283 273 269 263 257 255 258 257 251 247 246 247 236 233 238 233 225 220 211 208 217 221 227 239 255 267 269 274 291 299 299 303 312 317
255 234 227 244 268 265 274 275 294 287 272 267 264 256 253 255 253 246 240 240 233 232 230 234 238 234 227 223 221 218 227 231 237 238 253 261 264 282 293 292 297 305 310 314
234 237 240 265 273 275 280 276 285 275 257 255 252 250 249 249 240 223 224 229 225 230 238 243 243 239 234 228 222 225 231 239 243 242 255 257 272 286 286 287 296 303 307 310
226 238 254 266 273 277 279 276 270 256 247 247 250 250 247 240 229 224 228 233 234 237 240 242 240 238 237 235 233 235 244 246 245 250 257 271 281 282 280 289 297 300 303 306
241 241 252 261 273 275 261 252 250 243 245 247 243 233 229 228 227 231 237 243 246 245 246 244 242 240 241 247 250 249 249 251 261 269 273 276 277 276 279 290 296 297 299 301
244 247 253 264 262 245 235 236 237 238 239 238 235 232 231 233 236 239 243 246 246 247 247 248 249 247 245 245 251 257 260 261 260 266 270 272 272 273 288 293 293 295 298 300
257 257 252 241 227 221 224 227 228 232 234 235 233 234 237 238 239 242 243 246 251 254 255 253 251 251 248 249 252 252 252 256 260 262 265 268 274 285 287 289 292 294 295 297
236 225 211 205 205 205 206 210 220 228 231 236 239 243 245 249 251 251 244 244 247 253 256 255 253 254 256 252 249 250 252 255 258 261 262 263 272 279 285 290 292 293 296 296
194 189 188 188 185 186 194 203 212 220 228 238 242 244 246 250 253 254 251 255 258 258 254 254 257 259 260 255 250 250 252 253 257 259 265 270 275 280 285 288 290 292 294 296
189 184 182 185 191 200 210 214 221 225 230 237 245 250 255 257 254 250 251 253 255 253 252 253 255 256 255 251 250 250 251 255 257 261 267 270 276 283 286 289 291 293 295 294
199 196 199 203 208 214 218 221 225 229 236 242 246 251 258 260 256 256 260 260 259 259 259 260 257 254 252 248 248 252 259 261 264 268 270 274 281 287 289 291 291 291 290 291
216 214 214 216 219 223 225 229 233 235 241 248 252 253 255 254 256 261 261 259 261 263 263 261 256 251 247 248 252 258 261 264 270 273 277 282 286 289 290 291 292 292 291 290
Height
3046 3048 3048 3047 3049 3049 3050 3050 3049 3047 3046 3044 3044 3043 3041 3041 3042 3041 3040 3041 3041 3040 3039 3038 3037 3036 3036 3034 3034 3033 3032 3030 3029 3028 3029 3026 3023 3021 3018 3014 3013 3011 3009 3007
3041 3042 3042 3042 3039 3039 3040 3039 3039 3040 3036 3039 3038 3037 3034 3034 3035 3034 3035 3035 3034 3033 3031 3031 3031 3031 3031 3028 3027 3027 3026 3024 3024 3024 3023 3019 3018 3016 3014 3011 3009 3008 3006 3004
3036 3036 3037 3037 3030 3032 3031 3032 3031 3029 3029 3031 3033 3029 3027 3028 3028 3026 3027 3027 3026 3026 3025 3025 3024 3024 3024 3021 3019 3019 3019 3019 3019 3018 3017 3015 3013 3011 3009 3007 3006 3005 3002 3000
3033 3033 3034 3025 3026 3025 3024 3024 3025 3026 3024 3024 3025 3022 3022 3021 3020 3019 3019 3019 3019 3018 3018 3018 3018 3018 3016 3014 3014 3014 3013 3014 3013 3012 3011 3010 3008 3007 3006 3005 3003 3002 3000 2997
3029 3028 3025 3021 3016 3021 3021 3015 3019 3018 3018 3018 3018 3016 3015 3015 3014 3013 3012 3012 3011 3011 3011 3012 3012 3012 3010 3009 3009 3008 3009 3008 3007 3007 3006 3005 3004 3004 3003 3002 3001 2999 2997 2994
3024 3023 3022 3007 3013 3016 3016 3011 3012 3014 3012 3012 3012 3010 3011 3009 3008 3007 3005 3004 3003 3003 3004 3005 3005 3005 3004 3003 3003 3003 3003 3002 3002 3001 3001 3001 3001 3001 3001 3000 2998 2997 2994 2991
3017 3017 3012 3007 3010 3013 3015 3007 3010 3008 3007 3007 3006 3007 3005 3003 3001 2999 2998 2997 2997 2996 2997 2998 2999 2999 2999 2998 2997 2997 2997 2997 2996 2996 2998 2998 2998 2998 2998 2997 2995 2993 2991 2989
3012 3011 3007 3003 3004 3006 3005 3003 3003 3003 3003 3001 3000 2999 2998 2995 2994 2992 2991 2991 2992 2991 2991 2992 2993 2993 2992 2992 2992 2992 2991 2991 2991 2993 2994 2995 2996 2996 2995 2994 2992 2991 2989 2987
3005 3000 3000 2999 2997 2997 2997 2997 2997 2997 2995 2993 2991 2990 2989 2988 2986 2985 2985 2985 2985 2987 2987 2986 2986 2986 2985 2986 2985 2985 2986 2986 2987 2989 2991 2992 2993 2993 2992 2991 2990 2988 2986 2984
2995 2992 2992 2992 2990 2989 2988 2988 2988 2987 2986 2985 2983 2982 2980 2979 2978 2979 2980 2980 2980 2981 2981 2980 2979 2979 2979 2979 2980 2980 2981 2983 2984 2987 2988 2990 2990 2990 2990 2989 2987 2986 2984 2982
2983 2984 2984 2982 2980 2979 2980 2981 2980 2980 2979 2977 2975 2974 2972 2972 2972 2973 2974 2974 2974 2974 2973 2973 2972 2972 2973 2974 2975 2976 2978 2980 2982 2984 2986 2987 2988 2987 2987 2986 2985 2984 2981 2979
2974 2977 2974 2973 2973 2973 2975 2976 2975 2974 2972 2970 2969 2968 2967 2967 2967 2967 2968 2968 2967 2967 2966 2966 2966 2968 2969 2970 2971 2972 2975 2978 2980 2982 2983 2983 2985 2985 2983 2982 2982 2981 2978 2976
2967 2968 2966 2967 2968 2969 2969 2968 2968 2967 2965 2964 2963 2962 2961 2961 2961 2961 2962 2961 2961 2960 2961 2962 2962 2963 2964 2966 2967 2970 2972 2975 2977 2979 2980 2981 2981 2981 2980 2978 2978 2977 2975 2972
2960 2961 2958 2960 2961 2961 2962 2961 2961 2960 2958 2958 2956 2956 2956 2955 2955 2955 2955 2955 2955 2956 2957 2958 2959 2960 2961 2962 2964 2966 2969 2972 2974 2975 2976 2977 2977 2977 2976 2975 2974 2973 2970 2968
2947 2950 2951 2953 2953 2954 2954 2954 2954 2952 2951 2950 2950 2949 2949 2949 2949 2950 2949 2950 2950 2952 2953 2954 2955 2956 2957 2959 2961 2964 2967 2969 2970 2972 2973 2973 2973 2973 2973 2971 2970 2969 2966 2963
2937 2939 2941 2944 2946 2946 2948 2948 2947 2946 2944 2943 2943 2943 2943 2944 2944 2944 2945 2945 2947 2948 2949 2950 2951 2952 2953 2956 2958 2961 2963 2964 2966 2967 2968 2969 2969 2969 2968 2966 2965 2964 2961 2959
2930 2932 2934 2937 2939 2940 2941 2941 2940 2939 2937 2937 2938 2938 2939 2939 2939 2940 2941 2942 2943 2944 2945 2946 2947 2948 2950 2952 2954 2956 2958 2960 2961 2962 2963 2964 2963 2964 2963 2961 2959 2958 2956 2954
2925 2928 2930 2932 2934 2934 2934 2935 2934 2933 2933 2933 2933 2934 2935 2936 2936 2937 2937 2939 2940 2941 2941 2942 2943 2944 2946 2948 2950 2951 2953 2955 2956 2957 2958 2958 2958 2958 2957 2955 2954 2953 2952 2950
2917 2921 2924 2927 2928 2928 2929 2929 2928 2928 2929 2929 2930 2931 2932 2933 2933 2934 2935 2936 2937 2938 2938 2938 2940 2941 2943 2944 2946 2948 2949 2950 2951 2952 2953 2953 2953 2952 2951 2950 2950 2949 2947 2945
2912 2916 2919 2921 2922 2922 2922 2923 2924 2924 2925 2926 2927 2928 2929 2929 2930 2931 2932 2932 2933 2934 2934 2935 2936 2938 2939 2940 2941 2943 2944 2945 2946 2947 2948 2948 2947 2946 2946 2946 2945 2944 2942 2940
2909 2911 2913 2915 2916 2917 2918 2919 2920 2921 2922 2923 2924 2925 2926 2926 2927 2928 2929 2929 2930 2930 2931 2932 2933 2934 2935 2937 2937 2938 2940 2940 2941 2941 2942 2941 2941 2941 2941 2941 2940 2939 2937 2935
2905 2907 2909 2910 2912 2914 2915 2916 2917 2918 2919 2920 2921 2922 2923 2923 2924 2925 2926 2927 2927 2927 2928 2929 2929 2930 2931 2932 2933 2934 2934 2935 2935 2936 2936 2936 2936 2936 2936 2936 2935 2933 2932 2930
2903 2904 2906 2908 2910 2911 2913 2914 2915 2916 2918 2918 2919 2920 2920 2921 2922 2922 2923 2923 2923 2924 2925 2925 2926 2926 2926 2927 2928 2928 2929 2930 2930 2931 2932 2932 2932 2931 2931 2930 2929 2927 2925 2924
2902 2903 2905 2906 2908 2910 2911 2912 2913 2914 2915 2916 2917 2917 2918 2918 2919 2919 2920 2920 2920 2921 2921 2921 2921 2922 2923 2923 2923 2924 2924 2925 2925 2925 2926 2926 2926 2926 2925 2924 2923 2921 2919 2918
2901 2902 2904 2906 2907 2908 2910 2911 2911 2912 2913 2914 2914 2914 2915 2915 2916 2916 2915 2916 2916 2916 2916 2917 2917 2917 2918 2918 2919 2919 2920 2920 2920 2920 2921 2921 2920 2920 2919 2918 2916 2914 2912 2911
2900 2901 2903 2904 2905 2906 2907 2908 2909 2910 2910 2911 2911 2911 2912 2912 2912 2912 2912 2912 2912 2913 2913 2913 2913 2914 2914 2914 2914 2915 2915 2916 2915 2915 2915 2915 2914 2913 2912 2911 2910 2908 2906 2904
2898 2899 2900 2902 2903 2904 2905 2906 2906 2907 2907 2907 2908 2908 2908 2908 2908 2908 2908 2908 2908 2908 2908 2908 2909 2909 2909 2909 2910 2910 2910 2910 2910 2910 2910 2909 2908 2907 2905 2904 2902 2901 2900 2898